�������l�o���
Date,Time,MP-1(��Sv/h),MP-2(��Sv/h),MP-3(��Sv/h),MP-4(��Sv/h),MP-5(��Sv/h),MP-6(��Sv/h),MP-7(��Sv/h),MP-8(��Sv/h),����,����(m/s),���J
2020/02/27,00:00,0.678,0.969,0.644,1.194,0.849,0.395,0.692,0.656,�k�k��,6.3,��
2020/02/27,00:10,0.680,0.972,0.642,1.195,0.849,0.395,0.690,0.656,�k�k��,6.0,��
2020/02/27,00:20,0.679,0.967,0.643,1.195,0.851,0.394,0.691,0.655,�k�k��,6.3,��
2020/02/27,00:30,0.679,0.969,0.644,1.197,0.850,0.394,0.689,0.656,�k�k��,6.8,��
2020/02/27,00:40,0.679,0.969,0.641,1.195,0.851,0.394,0.689,0.656,�k�k��,6.9,��
2020/02/27,00:50,0.677,0.970,0.642,1.195,0.849,0.395,0.692,0.656,�k�k��,6.4,��
2020/02/27,01:00,0.680,0.967,0.643,1.195,0.850,0.395,0.690,0.656,�k�k��,7.2,��
2020/02/27,01:10,0.678,0.969,0.644,1.196,0.850,0.395,0.693,0.656,�k�k��,7.1,��
2020/02/27,01:20,0.678,0.970,0.643,1.196,0.848,0.395,0.690,0.656,�k�k��,7.8,��
2020/02/27,01:30,0.678,0.969,0.643,1.194,0.849,0.393,0.689,0.658,�k�k��,7.7,��
2020/02/27,01:40,0.680,0.971,0.643,1.194,0.852,0.395,0.690,0.657,�k�k��,7.6,��
2020/02/27,01:50,0.679,0.968,0.643,1.197,0.852,0.395,0.690,0.656,�k�k��,6.9,��
2020/02/27,02:00,0.680,0.967,0.644,1.195,0.850,0.393,0.694,0.656,�k�k��,7.7,��
2020/02/27,02:10,0.680,0.970,0.642,1.195,0.851,0.394,0.690,0.657,�k�k��,7.6,��
2020/02/27,02:20,0.679,0.969,0.642,1.196,0.852,0.395,0.693,0.659,�k�k��,7.1,��
2020/02/27,02:30,0.680,0.968,0.643,1.196,0.852,0.395,0.691,0.657,�k�k��,6.9,��
2020/02/27,02:40,0.679,0.969,0.643,1.196,0.850,0.395,0.690,0.657,�k�k��,7.4,��
2020/02/27,02:50,0.679,0.970,0.643,1.198,0.851,0.393,0.692,0.658,�k�k��,8.0,��
2020/02/27,03:00,0.681,0.969,0.643,1.197,0.851,0.395,0.691,0.657,�k�k��,8.0,��
2020/02/27,03:10,0.678,0.970,0.644,1.198,0.850,0.394,0.692,0.658,�k�k��,7.6,��
2020/02/27,03:20,0.679,0.969,0.644,1.195,0.852,0.395,0.690,0.655,�k�k��,7.0,��
2020/02/27,03:30,0.680,0.969,0.643,1.195,0.851,0.395,0.694,0.658,�k�k��,6.5,��
2020/02/27,03:40,0.678,0.970,0.642,1.194,0.849,0.395,0.691,0.657,�k�k��,7.1,��
2020/02/27,03:50,0.679,0.971,0.644,1.199,0.851,0.394,0.692,0.657,�k�k��,7.1,��
2020/02/27,04:00,0.678,0.971,0.643,1.197,0.851,0.397,0.691,0.657,�k�k��,7.3,��
2020/02/27,04:10,0.678,0.969,0.645,1.195,0.851,0.394,0.691,0.658,�k�k��,6.1,��
2020/02/27,04:20,0.680,0.971,0.643,1.194,0.851,0.395,0.691,0.658,�k�k��,6.2,��
2020/02/27,04:30,0.677,0.968,0.642,1.198,0.851,0.394,0.691,0.658,�k�k��,5.9,��
2020/02/27,04:40,0.680,0.970,0.644,1.197,0.852,0.394,0.691,0.657,�k�k��,6.4,��
2020/02/27,04:50,0.679,0.968,0.643,1.198,0.850,0.393,0.692,0.657,�k�k��,6.4,�L
2020/02/27,05:00,0.679,0.968,0.645,1.196,0.850,0.395,0.693,0.657,�k��,6.6,��
2020/02/27,05:10,0.679,0.970,0.644,1.197,0.851,0.394,0.690,0.657,�k�k��,7.1,��
2020/02/27,05:20,0.678,0.970,0.643,1.197,0.852,0.394,0.693,0.658,�k�k��,7.5,��
2020/02/27,05:30,0.681,0.970,0.643,1.198,0.851,0.394,0.692,0.658,�k�k��,7.8,��
2020/02/27,05:40,0.679,0.970,0.643,1.198,0.851,0.395,0.691,0.658,�k�k��,7.8,��
2020/02/27,05:50,0.681,0.969,0.642,1.196,0.851,0.394,0.691,0.657,�k�k��,8.7,��
2020/02/27,06:00,0.679,0.973,0.643,1.198,0.852,0.394,0.692,0.657,�k��,9.1,��
2020/02/27,06:10,0.681,0.970,0.644,1.195,0.852,0.394,0.691,0.658,�k�k��,8.6,�L
2020/02/27,06:20,0.678,0.969,0.643,1.196,0.852,0.395,0.691,0.657,�k�k��,7.9,�L
2020/02/27,06:30,0.680,0.971,0.643,1.198,0.851,0.396,0.692,0.657,�k�k��,7.2,�L
2020/02/27,06:40,0.680,0.971,0.642,1.197,0.851,0.393,0.693,0.658,�k�k��,7.6,�L
2020/02/27,06:50,0.679,0.969,0.644,1.197,0.850,0.395,0.691,0.657,�k�k��,6.5,�L
2020/02/27,07:00,0.679,0.972,0.641,1.197,0.850,0.395,0.692,0.658,�k�k��,7.0,�L
2020/02/27,07:10,0.679,0.967,0.643,1.195,0.851,0.395,0.693,0.658,�k�k��,7.3,�L
2020/02/27,07:20,0.678,0.967,0.642,1.198,0.850,0.395,0.692,0.656,�k�k��,7.5,�L
2020/02/27,07:30,0.679,0.968,0.643,1.197,0.852,0.394,0.691,0.657,�k�k��,6.7,�L
2020/02/27,07:40,0.681,0.968,0.642,1.199,0.850,0.396,0.693,0.657,�k�k��,7.0,�L
2020/02/27,07:50,0.678,0.970,0.643,1.197,0.851,0.393,0.692,0.658,�k�k��,7.6,�L
2020/02/27,08:00,0.679,0.969,0.643,1.195,0.853,0.394,0.690,0.658,�k�k��,8.3,�L
2020/02/27,08:10,0.679,0.969,0.642,1.196,0.852,0.395,0.690,0.659,�k�k��,8.0,�L
2020/02/27,08:20,0.680,0.968,0.645,1.199,0.852,0.395,0.691,0.658,�k�k��,7.6,�L
2020/02/27,08:30,0.681,0.969,0.643,1.197,0.851,0.393,0.690,0.657,�k��,8.0,�L
2020/02/27,08:40,0.681,0.968,0.643,1.197,0.854,0.395,0.690,0.658,�k��,6.1,��
2020/02/27,08:50,0.680,0.969,0.643,1.197,0.853,0.395,0.696,0.657,�k��,6.7,��
2020/02/27,09:00,0.679,0.966,0.643,1.200,0.852,0.393,0.692,0.657,�k��,7.0,��
2020/02/27,09:10,0.680,0.967,0.644,1.197,0.851,0.394,0.693,0.658,�k�k��,7.1,��
2020/02/27,09:20,0.681,0.966,0.641,1.196,0.852,0.394,0.691,0.658,�k�k��,6.9,��
2020/02/27,09:30,0.681,0.969,0.644,1.197,0.857,0.394,0.691,0.658,�k�k��,8.2,��
2020/02/27,09:40,0.682,0.968,0.643,1.197,0.855,0.395,0.691,0.657,�k�k��,8.0,��
2020/02/27,09:50,0.683,0.972,0.643,1.199,0.853,0.394,0.692,0.658,�k�k��,9.3,��
2020/02/27,10:00,0.681,0.968,0.644,1.198,0.853,0.395,0.691,0.659,�k�k��,9.3,��
2020/02/27,10:10,0.682,0.970,0.643,1.198,0.854,0.395,0.692,0.658,�k,6.8,��
2020/02/27,10:20,0.682,0.969,0.644,1.197,0.855,0.395,0.691,0.660,�k�k��,6.9,��
2020/02/27,10:30,0.682,0.967,0.647,1.199,0.857,0.394,0.691,0.659,�k�k��,7.9,��
2020/02/27,10:40,0.684,0.969,0.645,1.198,0.855,0.394,0.691,0.659,�k,7.1,��
2020/02/27,10:50,0.681,0.971,0.644,1.199,0.858,0.395,0.690,0.659,�k,7.8,��
2020/02/27,11:00,0.682,0.972,0.646,1.199,0.858,0.395,0.689,0.660,�k,8.6,��
2020/02/27,11:10,0.685,0.971,0.647,1.198,0.857,0.399,0.689,0.659,�k,7.9,��
2020/02/27,11:20,0.682,0.975,0.645,1.201,0.856,0.394,0.689,0.658,�k,8.3,��
2020/02/27,11:30,0.685,0.971,0.645,1.198,0.858,0.394,0.691,0.659,�k,9.0,�L
2020/02/27,11:40,0.684,0.972,0.646,1.200,0.859,0.393,0.690,0.659,�k,9.0,�L
2020/02/27,11:50,0.685,0.972,0.644,1.199,0.857,0.394,0.691,0.659,�k�k��,9.2,�L
2020/02/27,12:00,0.684,0.971,0.646,1.201,0.855,0.395,0.689,0.661,�k�k��,8.7,��
2020/02/27,12:10,0.682,0.972,0.646,1.198,0.857,0.396,0.693,0.660,�k�k��,9.3,��
2020/02/27,12:20,0.685,0.972,0.647,1.199,0.857,0.395,0.690,0.659,�k�k��,9.2,�L
2020/02/27,12:30,0.684,0.976,0.646,1.199,0.858,0.395,0.688,0.659,�k�k��,9.3,�L
2020/02/27,12:40,0.684,0.975,0.645,1.200,0.858,0.395,0.691,0.658,�k�k��,9.5,�L
2020/02/27,12:50,0.685,0.974,0.647,1.200,0.856,0.395,0.690,0.660,�k�k��,9.1,�L
2020/02/27,13:00,0.684,0.976,0.648,1.200,0.860,0.395,0.690,0.659,�k,10.6,�L
2020/02/27,13:10,0.685,0.977,0.646,1.203,0.859,0.395,0.688,0.660,�k,9.6,�L
2020/02/27,13:20,0.684,0.976,0.646,1.203,0.859,0.396,0.688,0.660,�k�k��,6.9,�L
2020/02/27,13:30,0.685,0.976,0.648,1.203,0.861,0.395,0.691,0.660,�k�k��,6.5,�L
2020/02/27,13:40,0.687,0.972,0.647,1.201,0.860,0.395,0.689,0.659,�k�k��,5.0,��
2020/02/27,13:50,0.686,0.974,0.649,1.203,0.861,0.395,0.691,0.660,�k,3.7,��
2020/02/27,14:00,0.686,0.976,0.648,1.203,0.861,0.396,0.690,0.659,�k,4.6,��
2020/02/27,14:10,0.686,0.977,0.648,1.203,0.859,0.394,0.693,0.662,�k,4.3,�L
2020/02/27,14:20,0.685,0.977,0.650,1.201,0.860,0.396,0.690,0.661,�k,2.6,�L
2020/02/27,14:30,0.686,0.976,0.649,1.202,0.861,0.396,0.691,0.660,�k,2.8,�L
2020/02/27,14:40,0.686,0.976,0.648,1.201,0.860,0.396,0.690,0.659,�k�k��,3.7,�L
2020/02/27,14:50,0.684,0.975,0.647,1.203,0.862,0.395,0.691,0.661,�k�k��,5.5,�L
2020/02/27,15:00,0.685,0.972,0.648,1.201,0.861,0.397,0.690,0.661,�k�k��,5.6,�L
2020/02/27,15:10,0.683,0.977,0.648,1.202,0.859,0.397,0.690,0.660,�k�k��,6.2,��
2020/02/27,15:20,0.684,0.974,0.648,1.200,0.859,0.395,0.689,0.659,�k�k��,6.0,��
2020/02/27,15:30,0.684,0.975,0.649,1.203,0.859,0.395,0.690,0.659,�k,5.0,�L
2020/02/27,15:40,0.683,0.978,0.648,1.201,0.860,0.394,0.690,0.659,�k,8.2,�L
2020/02/27,15:50,0.683,0.976,0.648,1.202,0.858,0.394,0.690,0.659,�k��,3.4,�L
2020/02/27,16:00,0.683,0.976,0.645,1.197,0.854,0.398,0.688,0.656,�k��,7.4,�L
2020/02/27,16:10,0.683,0.977,0.647,1.197,0.852,0.397,0.686,0.655,���k��,9.2,�L
2020/02/27,16:20,0.684,0.974,0.645,1.195,0.852,0.398,0.689,0.655,���k��,8.8,�L
2020/02/27,16:30,0.683,0.973,0.645,1.199,0.852,0.395,0.689,0.656,�k��,7.3,��
2020/02/27,16:40,0.684,0.974,0.645,1.197,0.851,0.393,0.689,0.657,�k�k��,8.4,��
2020/02/27,16:50,0.682,0.973,0.645,1.195,0.853,0.393,0.689,0.656,�k�k��,6.2,��
2020/02/27,17:00,0.683,0.973,0.645,1.199,0.854,0.394,0.688,0.657,�k�k��,6.6,��
2020/02/27,17:10,0.682,0.975,0.644,1.197,0.854,0.393,0.690,0.655,�k�k��,5.8,��
2020/02/27,17:20,0.683,0.974,0.644,1.197,0.851,0.394,0.689,0.657,�k�k��,5.0,��
2020/02/27,17:30,0.684,0.975,0.645,1.195,0.848,0.395,0.690,0.655,�k,6.0,��
2020/02/27,17:40,0.682,0.972,0.644,1.197,0.850,0.394,0.690,0.656,�k�k��,6.8,��
2020/02/27,17:50,0.681,0.973,0.643,1.194,0.851,0.392,0.690,0.655,�k,4.9,��
2020/02/27,18:00,0.682,0.974,0.643,1.195,0.851,0.394,0.687,0.656,�k�k��,5.6,��
2020/02/27,18:10,0.681,0.973,0.644,1.196,0.850,0.394,0.688,0.656,�k�k��,6.1,��
2020/02/27,18:20,0.681,0.972,0.645,1.195,0.851,0.393,0.688,0.655,�k�k��,3.8,��
2020/02/27,18:30,0.681,0.973,0.642,1.195,0.849,0.393,0.689,0.654,�k��,7.1,��
2020/02/27,18:40,0.681,0.973,0.641,1.195,0.851,0.394,0.688,0.656,�k��,8.2,��
2020/02/27,18:50,0.681,0.972,0.642,1.195,0.851,0.391,0.689,0.655,�k��,7.5,��
2020/02/27,19:00,0.681,0.972,0.644,1.195,0.850,0.392,0.691,0.655,�k��,7.3,��
2020/02/27,19:10,0.681,0.971,0.643,1.195,0.851,0.393,0.689,0.657,�k��,9.2,��
2020/02/27,19:20,0.680,0.973,0.641,1.198,0.852,0.393,0.690,0.656,�k��,8.1,��
2020/02/27,19:30,0.683,0.973,0.642,1.196,0.852,0.392,0.688,0.655,�k��,7.8,��
2020/02/27,19:40,0.679,0.973,0.643,1.196,0.850,0.392,0.689,0.655,�k�k��,6.2,��
2020/02/27,19:50,0.680,0.974,0.642,1.195,0.848,0.393,0.690,0.656,�k��,6.6,��
2020/02/27,20:00,0.680,0.972,0.643,1.196,0.851,0.393,0.688,0.656,�k�k��,9.8,��
2020/02/27,20:10,0.681,0.974,0.642,1.194,0.851,0.392,0.689,0.655,�k�k��,9.0,��
2020/02/27,20:20,0.679,0.974,0.644,1.197,0.852,0.392,0.689,0.656,�k��,6.8,��
2020/02/27,20:30,0.678,0.972,0.644,1.196,0.850,0.392,0.689,0.655,�k��,5.1,��
2020/02/27,20:40,0.682,0.974,0.640,1.196,0.851,0.392,0.689,0.656,�k��,5.2,��
2020/02/27,20:50,0.681,0.974,0.642,1.196,0.852,0.393,0.689,0.655,���k��,5.6,��
2020/02/27,21:00,0.682,0.974,0.643,1.195,0.852,0.394,0.687,0.657,�k��,5.8,��
2020/02/27,21:10,0.678,0.973,0.642,1.196,0.849,0.391,0.689,0.655,�k��,6.5,��
2020/02/27,21:20,0.679,0.975,0.642,1.197,0.852,0.392,0.688,0.655,�k��,6.3,��
2020/02/27,21:30,0.680,0.972,0.643,1.198,0.850,0.391,0.690,0.657,�k��,6.7,��
2020/02/27,21:40,0.681,0.974,0.642,1.196,0.851,0.391,0.690,0.654,�k��,6.5,��
2020/02/27,21:50,0.679,0.974,0.643,1.199,0.852,0.392,0.689,0.655,�k��,6.0,��
2020/02/27,22:00,0.681,0.973,0.643,1.198,0.850,0.392,0.691,0.655,���k��,5.6,��
2020/02/27,22:10,0.680,0.973,0.642,1.195,0.851,0.391,0.689,0.655,�k��,4.6,��
2020/02/27,22:20,0.679,0.971,0.642,1.197,0.850,0.393,0.689,0.656,���k��,6.1,��
2020/02/27,22:30,0.680,0.974,0.643,1.196,0.851,0.392,0.688,0.656,���k��,7.0,��
2020/02/27,22:40,0.681,0.974,0.643,1.195,0.851,0.393,0.687,0.656,���k��,6.8,��
2020/02/27,22:50,0.681,0.972,0.642,1.196,0.851,0.393,0.687,0.655,�k��,5.4,��
2020/02/27,23:00,0.680,0.970,0.641,1.199,0.851,0.392,0.689,0.656,�k��,5.2,��
2020/02/27,23:10,0.680,0.972,0.642,1.196,0.852,0.393,0.689,0.657,�k��,6.8,��
2020/02/27,23:20,0.679,0.972,0.640,1.197,0.851,0.391,0.689,0.656,�k��,5.6,��
2020/02/27,23:30,0.680,0.971,0.642,1.195,0.849,0.392,0.690,0.656,�k��,4.5,��
2020/02/27,23:40,0.678,0.972,0.642,1.196,0.849,0.392,0.690,0.656,�k��,3.8,��
2020/02/27,23:50,0.681,0.972,0.641,1.197,0.852,0.392,0.688,0.655,�k��,4.1,��
